Time,TemperatureF,DewpointF,PressureIn,WindDirection,WindDirectionDegrees,WindSpeedMPH,WindSpeedGustMPH,Humidity,HourlyPrecipIn,Conditions,Clouds,dailyrainin,SolarRadiationWatts/m^2,SoftwareType,DateUTC
2013-03-03 00:01:00,39.0,35.0,-100.00,NNW,343,3.0,7.0,84,0.00,,,0.00,0.000000,,2013-03-03 07:01:00,
2013-03-03 00:11:00,39.0,35.0,-100.00,NNW,343,3.0,7.0,84,0.00,,,0.00,0.000000,,2013-03-03 07:11:00,
2013-03-03 00:21:00,39.0,35.0,-100.00,NNW,343,3.0,7.0,84,0.00,,,0.00,0.000000,,2013-03-03 07:21:00,
2013-03-03 00:31:00,39.0,35.0,-100.00,NNW,343,3.0,7.0,84,0.00,,,0.00,0.000000,,2013-03-03 07:31:00,
2013-03-03 01:01:00,39.0,34.0,-100.00,SW,221,1.0,3.0,81,0.00,,,0.00,0.000000,,2013-03-03 08:01:00,
2013-03-03 01:11:00,39.0,34.0,-100.00,SW,221,1.0,3.0,81,0.00,,,0.00,0.000000,,2013-03-03 08:11:00,
2013-03-03 01:21:00,39.0,34.0,-100.00,SW,221,1.0,3.0,81,0.00,,,0.00,0.000000,,2013-03-03 08:21:00,
2013-03-03 01:31:00,39.0,34.0,-100.00,SW,221,1.0,3.0,81,0.00,,,0.00,0.000000,,2013-03-03 08:31:00,
2013-03-03 01:41:00,39.0,34.0,-100.00,SW,221,1.0,3.0,81,0.00,,,0.00,0.000000,,2013-03-03 08:41:00,
2013-03-03 02:01:00,39.0,34.0,-100.00,NE,56,0.0,5.0,82,0.00,,,0.00,0.000000,,2013-03-03 09:01:00,
2013-03-03 02:11:00,39.0,34.0,-100.00,NE,56,0.0,5.0,82,0.00,,,0.00,0.000000,,2013-03-03 09:11:00,
2013-03-03 02:21:00,39.0,34.0,-100.00,NE,56,0.0,5.0,82,0.00,,,0.00,0.000000,,2013-03-03 09:21:00,
2013-03-03 02:32:00,39.0,34.0,-100.00,NE,56,0.0,5.0,82,0.00,,,0.00,0.000000,,2013-03-03 09:32:00,
2013-03-03 02:41:00,39.0,34.0,-100.00,NE,56,0.0,5.0,82,0.00,,,0.00,0.000000,,2013-03-03 09:41:00,
2013-03-03 03:01:00,38.0,34.0,-100.00,NW,313,2.0,4.0,85,0.00,,,0.00,0.000000,,2013-03-03 10:01:00,
2013-03-03 03:11:00,38.0,34.0,-100.00,NW,313,2.0,4.0,85,0.00,,,0.00,0.000000,,2013-03-03 10:11:00,
2013-03-03 03:21:00,38.0,34.0,-100.00,NW,313,2.0,4.0,85,0.00,,,0.00,0.000000,,2013-03-03 10:21:00,
2013-03-03 03:31:00,38.0,34.0,-100.00,NW,313,2.0,4.0,85,0.00,,,0.00,0.000000,,2013-03-03 10:31:00,
2013-03-03 03:41:00,38.0,34.0,-100.00,NW,313,2.0,4.0,85,0.00,,,0.00,0.000000,,2013-03-03 10:41:00,
2013-03-03 04:01:00,35.0,33.0,-100.00,NW,306,6.0,10.0,93,0.00,,,0.00,0.000000,,2013-03-03 11:01:00,
2013-03-03 04:11:00,35.0,33.0,-100.00,NW,306,6.0,10.0,93,0.00,,,0.00,0.000000,,2013-03-03 11:11:00,
2013-03-03 04:21:00,35.0,33.0,-100.00,NW,306,6.0,10.0,93,0.00,,,0.00,0.000000,,2013-03-03 11:21:00,
2013-03-03 04:31:00,35.0,33.0,-100.00,NW,306,6.0,10.0,93,0.00,,,0.00,0.000000,,2013-03-03 11:31:00,
2013-03-03 04:41:00,35.0,33.0,-100.00,NW,306,6.0,10.0,93,0.00,,,0.00,0.000000,,2013-03-03 11:41:00,
2013-03-03 04:42:00,36.0,34.0,-100.00,SE,132,5.0,8.0,94,0.00,,,0.00,0.000000,,2013-03-03 11:42:00,
2013-03-03 05:01:00,36.0,34.0,-100.00,SE,132,5.0,8.0,94,0.00,,,0.00,0.000000,,2013-03-03 12:01:00,
2013-03-03 05:11:00,36.0,34.0,-100.00,SE,132,5.0,8.0,94,0.00,,,0.00,0.000000,,2013-03-03 12:11:00,
2013-03-03 05:21:00,36.0,34.0,-100.00,SE,132,5.0,8.0,94,0.00,,,0.00,0.000000,,2013-03-03 12:21:00,
2013-03-03 05:32:00,36.0,34.0,-100.00,SE,132,5.0,8.0,94,0.00,,,0.00,0.000000,,2013-03-03 12:32:00,
2013-03-03 06:01:00,37.0,36.0,-100.00,South,186,7.0,13.0,97,0.01,,,0.01,0.000000,,2013-03-03 13:01:00,
2013-03-03 06:11:00,37.0,36.0,-100.00,South,186,7.0,13.0,97,0.01,,,0.01,0.000000,,2013-03-03 13:11:00,
2013-03-03 06:21:00,37.0,36.0,-100.00,South,186,7.0,13.0,97,0.01,,,0.01,0.000000,,2013-03-03 13:21:00,
2013-03-03 06:32:00,37.0,36.0,-100.00,South,186,7.0,13.0,97,0.01,,,0.01,0.000000,,2013-03-03 13:32:00,
2013-03-03 06:41:00,37.0,36.0,-100.00,South,186,7.0,13.0,97,0.01,,,0.01,0.000000,,2013-03-03 13:41:00,
2013-03-03 06:42:00,37.0,36.0,-100.00,WSW,244,3.0,17.0,96,0.00,,,0.01,0.000000,,2013-03-03 13:42:00,
2013-03-03 07:01:00,37.0,36.0,-100.00,WSW,244,3.0,17.0,96,0.00,,,0.01,0.000000,,2013-03-03 14:01:00,
2013-03-03 07:11:00,37.0,36.0,-100.00,WSW,244,3.0,17.0,96,0.00,,,0.01,0.000000,,2013-03-03 14:11:00,
2013-03-03 07:21:00,37.0,36.0,-100.00,WSW,244,3.0,17.0,96,0.00,,,0.01,0.000000,,2013-03-03 14:21:00,
2013-03-03 07:31:00,37.0,36.0,-100.00,WSW,244,3.0,17.0,96,0.00,,,0.01,0.000000,,2013-03-03 14:31:00,
2013-03-03 08:01:00,36.0,35.0,-100.00,SE,137,6.0,16.0,98,0.00,,,0.01,2.000000,,2013-03-03 15:01:00,
2013-03-03 08:11:00,36.0,35.0,-100.00,SE,137,6.0,16.0,98,0.00,,,0.01,2.000000,,2013-03-03 15:11:00,
2013-03-03 08:22:00,36.0,35.0,-100.00,SE,137,6.0,16.0,98,0.00,,,0.01,2.000000,,2013-03-03 15:22:00,
2013-03-03 08:31:00,36.0,35.0,-100.00,SE,137,6.0,16.0,98,0.00,,,0.01,2.000000,,2013-03-03 15:31:00,
2013-03-03 08:41:00,36.0,35.0,-100.00,SE,137,6.0,16.0,98,0.00,,,0.01,2.000000,,2013-03-03 15:41:00,
2013-03-03 09:01:00,37.0,30.0,-100.00,NNW,331,10.0,14.0,77,0.00,,,0.01,55.000000,,2013-03-03 16:01:00,
2013-03-03 09:12:00,37.0,30.0,-100.00,NNW,331,10.0,14.0,77,0.00,,,0.01,55.000000,,2013-03-03 16:12:00,
2013-03-03 09:21:00,37.0,30.0,-100.00,NNW,331,10.0,14.0,77,0.00,,,0.01,55.000000,,2013-03-03 16:21:00,
2013-03-03 09:31:00,37.0,30.0,-100.00,NNW,331,10.0,14.0,77,0.00,,,0.01,55.000000,,2013-03-03 16:31:00,
2013-03-03 09:41:00,37.0,30.0,-100.00,NNW,331,10.0,14.0,77,0.00,,,0.01,55.000000,,2013-03-03 16:41:00,
2013-03-03 10:01:00,40.0,23.0,-100.00,NW,322,13.0,20.0,50,0.00,,,0.01,254.000000,,2013-03-03 17:01:00,
2013-03-03 10:11:00,40.0,23.0,-100.00,NW,322,13.0,20.0,50,0.00,,,0.01,254.000000,,2013-03-03 17:11:00,
2013-03-03 10:22:00,40.0,23.0,-100.00,NW,322,13.0,20.0,50,0.00,,,0.01,254.000000,,2013-03-03 17:22:00,
2013-03-03 10:32:00,40.0,23.0,-100.00,NW,322,13.0,20.0,50,0.00,,,0.01,254.000000,,2013-03-03 17:32:00,
2013-03-03 10:41:00,40.0,23.0,-100.00,NW,322,13.0,20.0,50,0.00,,,0.01,254.000000,,2013-03-03 17:41:00,
2013-03-03 11:01:00,39.0,18.0,-100.00,NW,315,16.0,23.0,42,0.00,,,0.01,446.000000,,2013-03-03 18:01:00,
2013-03-03 11:11:00,39.0,18.0,-100.00,NW,315,16.0,23.0,42,0.00,,,0.01,446.000000,,2013-03-03 18:11:00,
2013-03-03 11:21:00,39.0,18.0,-100.00,NW,315,16.0,23.0,42,0.00,,,0.01,446.000000,,2013-03-03 18:21:00,
2013-03-03 11:31:00,39.0,18.0,-100.00,NW,315,16.0,23.0,42,0.00,,,0.01,446.000000,,2013-03-03 18:31:00,
2013-03-03 11:41:00,39.0,18.0,-100.00,NW,315,16.0,23.0,42,0.00,,,0.01,446.000000,,2013-03-03 18:41:00,
2013-03-03 11:42:00,39.0,5.0,-100.00,NW,307,20.0,27.0,24,0.00,,,0.01,580.000000,,2013-03-03 18:42:00,
2013-03-03 12:01:00,39.0,5.0,-100.00,NW,307,20.0,27.0,24,0.00,,,0.01,580.000000,,2013-03-03 19:01:00,
2013-03-03 12:31:00,39.0,5.0,-100.00,NW,307,20.0,27.0,24,0.00,,,0.01,580.000000,,2013-03-03 19:31:00,
2013-03-03 12:42:00,40.0,6.0,-100.00,NW,311,14.0,29.0,24,0.00,,,0.01,668.000000,,2013-03-03 19:42:00,
2013-03-03 13:01:00,40.0,6.0,-100.00,NW,311,14.0,29.0,24,0.00,,,0.01,668.000000,,2013-03-03 20:01:00,
2013-03-03 13:11:00,40.0,6.0,-100.00,NW,311,14.0,29.0,24,0.00,,,0.01,668.000000,,2013-03-03 20:11:00,
2013-03-03 13:21:00,40.0,6.0,-100.00,NW,311,14.0,29.0,24,0.00,,,0.01,668.000000,,2013-03-03 20:21:00,
2013-03-03 13:32:00,40.0,6.0,-100.00,NW,311,14.0,29.0,24,0.00,,,0.01,668.000000,,2013-03-03 20:32:00,
2013-03-03 14:01:00,40.0,5.0,-100.00,NW,314,16.0,24.0,23,0.00,,,0.01,697.000000,,2013-03-03 21:01:00,
2013-03-03 14:11:00,40.0,5.0,-100.00,NW,314,16.0,24.0,23,0.00,,,0.01,697.000000,,2013-03-03 21:11:00,
2013-03-03 14:21:00,40.0,5.0,-100.00,NW,314,16.0,24.0,23,0.00,,,0.01,697.000000,,2013-03-03 21:21:00,
2013-03-03 14:31:00,40.0,5.0,-100.00,NW,314,16.0,24.0,23,0.00,,,0.01,697.000000,,2013-03-03 21:31:00,
2013-03-03 14:41:00,40.0,5.0,-100.00,NW,314,16.0,24.0,23,0.00,,,0.01,697.000000,,2013-03-03 21:41:00,
2013-03-03 14:42:00,40.0,6.0,-100.00,NNW,328,13.0,26.0,24,0.00,,,0.01,683.000000,,2013-03-03 21:42:00,
2013-03-03 15:01:00,40.0,6.0,-100.00,NNW,328,13.0,26.0,24,0.00,,,0.01,683.000000,,2013-03-03 22:01:00,
2013-03-03 15:11:00,40.0,6.0,-100.00,NNW,328,13.0,26.0,24,0.00,,,0.01,683.000000,,2013-03-03 22:11:00,
2013-03-03 15:21:00,40.0,6.0,-100.00,NNW,328,13.0,26.0,24,0.00,,,0.01,683.000000,,2013-03-03 22:21:00,
2013-03-03 15:31:00,40.0,6.0,-100.00,NNW,328,13.0,26.0,24,0.00,,,0.01,683.000000,,2013-03-03 22:31:00,
2013-03-03 16:01:00,40.0,4.0,-100.00,NW,320,16.0,23.0,22,0.00,,,0.01,529.000000,,2013-03-03 23:01:00,
2013-03-03 16:11:00,40.0,4.0,-100.00,NW,320,16.0,23.0,22,0.00,,,0.01,529.000000,,2013-03-03 23:11:00,
2013-03-03 16:21:00,40.0,4.0,-100.00,NW,320,16.0,23.0,22,0.00,,,0.01,529.000000,,2013-03-03 23:21:00,
2013-03-03 16:31:00,40.0,4.0,-100.00,NW,320,16.0,23.0,22,0.00,,,0.01,529.000000,,2013-03-03 23:31:00,
2013-03-03 16:41:00,40.0,4.0,-100.00,NW,320,16.0,23.0,22,0.00,,,0.01,529.000000,,2013-03-03 23:41:00,
2013-03-03 17:01:00,38.0,7.0,-100.00,NW,324,12.0,22.0,27,0.00,,,0.01,423.000000,,2013-03-04 00:01:00,
2013-03-03 17:11:00,38.0,7.0,-100.00,NW,324,12.0,22.0,27,0.00,,,0.01,423.000000,,2013-03-04 00:11:00,
2013-03-03 17:21:00,38.0,7.0,-100.00,NW,324,12.0,22.0,27,0.00,,,0.01,423.000000,,2013-03-04 00:21:00,
2013-03-03 17:32:00,38.0,7.0,-100.00,NW,324,12.0,22.0,27,0.00,,,0.01,423.000000,,2013-03-04 00:32:00,
2013-03-03 17:41:00,38.0,7.0,-100.00,NW,324,12.0,22.0,27,0.00,,,0.01,423.000000,,2013-03-04 00:41:00,
2013-03-03 18:01:00,35.0,6.0,-100.00,NW,325,11.0,19.0,29,0.00,,,0.01,257.000000,,2013-03-04 01:01:00,
2013-03-03 18:11:00,35.0,6.0,-100.00,NW,325,11.0,19.0,29,0.00,,,0.01,257.000000,,2013-03-04 01:11:00,
2013-03-03 18:21:00,35.0,6.0,-100.00,NW,325,11.0,19.0,29,0.00,,,0.01,257.000000,,2013-03-04 01:21:00,
2013-03-03 18:31:00,35.0,6.0,-100.00,NW,325,11.0,19.0,29,0.00,,,0.01,257.000000,,2013-03-04 01:31:00,
2013-03-03 18:41:00,35.0,6.0,-100.00,NW,325,11.0,19.0,29,0.00,,,0.01,257.000000,,2013-03-04 01:41:00,
2013-03-03 19:01:00,33.0,6.0,-100.00,NNW,334,12.0,18.0,32,0.00,,,0.01,29.000000,,2013-03-04 02:01:00,
2013-03-03 19:11:00,33.0,6.0,-100.00,NNW,334,12.0,18.0,32,0.00,,,0.01,29.000000,,2013-03-04 02:11:00,
2013-03-03 19:22:00,33.0,6.0,-100.00,NNW,334,12.0,18.0,32,0.00,,,0.01,29.000000,,2013-03-04 02:22:00,
2013-03-03 19:31:00,33.0,6.0,-100.00,NNW,334,12.0,18.0,32,0.00,,,0.01,29.000000,,2013-03-04 02:31:00,
2013-03-03 19:41:00,33.0,6.0,-100.00,NNW,334,12.0,18.0,32,0.00,,,0.01,29.000000,,2013-03-04 02:41:00,
2013-03-03 20:01:00,32.0,8.0,-100.00,NNW,348,9.0,21.0,36,0.00,,,0.01,0.000000,,2013-03-04 03:01:00,
2013-03-03 20:11:00,32.0,8.0,-100.00,NNW,348,9.0,21.0,36,0.00,,,0.01,0.000000,,2013-03-04 03:11:00,
2013-03-03 20:21:00,32.0,8.0,-100.00,NNW,348,9.0,21.0,36,0.00,,,0.01,0.000000,,2013-03-04 03:21:00,
2013-03-03 20:31:00,32.0,8.0,-100.00,NNW,348,9.0,21.0,36,0.00,,,0.01,0.000000,,2013-03-04 03:31:00,
2013-03-03 20:41:00,32.0,8.0,-100.00,NNW,348,9.0,21.0,36,0.00,,,0.01,0.000000,,2013-03-04 03:41:00,
2013-03-03 21:01:00,30.0,8.0,-100.00,North,10,3.0,11.0,38,0.00,,,0.01,0.000000,,2013-03-04 04:01:00,
2013-03-03 21:11:00,30.0,8.0,-100.00,North,10,3.0,11.0,38,0.00,,,0.01,0.000000,,2013-03-04 04:11:00,
2013-03-03 21:22:00,30.0,8.0,-100.00,North,10,3.0,11.0,38,0.00,,,0.01,0.000000,,2013-03-04 04:22:00,
2013-03-03 21:31:00,30.0,8.0,-100.00,North,10,3.0,11.0,38,0.00,,,0.01,0.000000,,2013-03-04 04:31:00,
2013-03-03 21:41:00,30.0,8.0,-100.00,North,10,3.0,11.0,38,0.00,,,0.01,0.000000,,2013-03-04 04:41:00,
2013-03-03 21:42:00,30.0,8.0,-100.00,NW,322,3.0,10.0,38,0.00,,,0.01,0.000000,,2013-03-04 04:42:00,
2013-03-03 22:01:00,30.0,8.0,-100.00,NW,322,3.0,10.0,38,0.00,,,0.01,0.000000,,2013-03-04 05:01:00,
2013-03-03 22:11:00,30.0,8.0,-100.00,NW,322,3.0,10.0,38,0.00,,,0.01,0.000000,,2013-03-04 05:11:00,
2013-03-03 22:22:00,30.0,8.0,-100.00,NW,322,3.0,10.0,38,0.00,,,0.01,0.000000,,2013-03-04 05:22:00,
2013-03-03 22:31:00,30.0,8.0,-100.00,NW,322,3.0,10.0,38,0.00,,,0.01,0.000000,,2013-03-04 05:31:00,
2013-03-03 22:42:00,29.0,6.0,-100.00,NE,44,2.0,6.0,37,0.00,,,0.01,0.000000,,2013-03-04 05:42:00,
2013-03-03 23:01:00,29.0,6.0,-100.00,NE,44,2.0,6.0,37,0.00,,,0.01,0.000000,,2013-03-04 06:01:00,
2013-03-03 23:11:00,29.0,6.0,-100.00,NE,44,2.0,6.0,37,0.00,,,0.01,0.000000,,2013-03-04 06:11:00,
2013-03-03 23:21:00,29.0,6.0,-100.00,NE,44,2.0,6.0,37,0.00,,,0.01,0.000000,,2013-03-04 06:21:00,
2013-03-03 23:31:00,29.0,6.0,-100.00,NE,44,2.0,6.0,37,0.00,,,0.01,0.000000,,2013-03-04 06:31:00,